Location: Newark
(41.6500°N, 71.4833°W)
Time: 21:06:42
(UTC+00:00)

Tiros 1 - Pass Details

Date: 20 January 2020
Orbit: 631 x 664 km, 48.4° (Epoch: 23 February)

Event Time Altitude Azimuth Distance (km) Brightness Sun altitude
Rises 22:08:36 0° 286° (WNW) 2,969 11.5 -4.7°
Reaches altitude 10° 22:11:05 10° 295° (WNW) 2,064 10.4 -5.1°
Maximum altitude 22:15:30 36° 2° (N) 1,039 8.0 -5.9°
Drops below altitude 10° 22:19:56 10° 70° (ENE) 2,078 9.1 -6.6°
Enters shadow 22:20:22 - 72° (ENE) 2,232 9.2 -6.7°
